Flag for Australia Weather past 2 weeks in Adelaide, South Australia, Australia

Now
57 °F

Broken clouds.


Feels Like: 55 °F
Forecast: 44 / 56 °F
Wind: 8 mph from South

Location: Adelaide Airport

Current Time: Aug 28, 2015 at 3:59:41 PM

Latest Report: Aug 28, 2015 at 3:00 PM


Visibility: N/A

Pressure: 30.33 "Hg

Humidity: 55%

Dew point: 41 °F

Location of AdelaideLocation

Historic Weather in Adelaide — Graph

°F

Adelaide temperature yesterday

Maximum temperature yesterday: 57 °F (at 12:30 PM)
Minimum temperature yesterday: 41 °F (at 1:30 AM)
Average temperature yesterday: 49 °F

Past Weeks' High & Low Weather Summary

 TemperatureHumidityPressure
High72 °F (Aug 20, 12:00 PM)100% (Aug 13, 7:30 PM)30.48 "Hg (Aug 13, 7:30 PM)
Low41 °F (Aug 23, 5:30 AM)28% (Aug 20, 1:17 AM)29.80 "Hg (Aug 21, 12:30 PM)
Average54 °F73%30.19 "Hg
* Reported Aug 13 2:30 PM — Aug 28 2:30 PM, Adelaide, Weather by CustomWeather, © 2015

Note: Actual official high and low records may vary slightly from our data, if they occured in-between our weather recording intervals... More about our weather records

Advertising

Adelaide weather history for previous 24 hours

 ConditionsComfort  
Time TempWeatherWind HumidityBarometerVisibility
2:30 PM
Fri, Aug 28
55 °FBroken clouds.12 mph63%30.33 "HgN/A
2:00 PM57 °FBroken clouds.9 mph55%30.33 "HgN/A
1:30 PM55 °FBroken clouds.10 mph63%30.33 "HgN/A
1:00 PM57 °FBroken clouds.8 mph63%30.36 "HgN/A
12:30 PM57 °FBroken clouds.9 mph59%30.36 "HgN/A
12:00 PM57 °FBroken clouds.9 mph59%30.39 "HgN/A
11:30 AM55 °FBroken clouds.7 mph59%30.39 "HgN/A
10:30 AM55 °FBroken clouds.6 mph67%30.39 "HgN/A
10:00 AM55 °FBroken clouds.8 mph72%30.42 "HgN/A
9:30 AM54 °FBroken clouds.9 mph77%30.42 "HgN/A
9:00 AM54 °FBroken clouds.12 mph77%30.39 "HgN/A
8:30 AM54 °FPartly sunny.6 mph77%30.39 "HgN/A
8:00 AM52 °FPartly sunny.2 mph82%30.39 "HgN/A
7:30 AM52 °FPartly sunny.5 mph88%30.39 "HgN/A
6:30 AM50 °FBroken clouds.No wind94%30.36 "HgN/A
6:00 AM50 °FPartly cloudy.No wind94%30.36 "HgN/A
5:30 AM50 °FSprinkles. Mostly cloudy.6 mph94%30.36 "Hg4 mi
5:00 AM50 °FSprinkles. Mostly cloudy.8 mph94%30.36 "Hg3 mi
4:30 AM50 °FSprinkles. Mostly cloudy.8 mph94%30.36 "Hg3 mi
3:30 AM50 °FDrizzle. Mostly cloudy.8 mph94%30.36 "Hg2 mi
2:30 AM50 °FPassing clouds.8 mph88%30.36 "HgN/A
2:00 AM48 °FPassing clouds.5 mph87%30.36 "HgN/A
1:30 AM46 °FPassing clouds.6 mph87%30.36 "HgN/A
1:00 AM45 °FPassing clouds.7 mph93%30.36 "HgN/A
12:30 AM46 °FLight fog.5 mph87%30.36 "HgN/A
12:00 AM46 °FPassing clouds.6 mph87%30.36 "HgN/A
11:30 PM
Thu, Aug 27
46 °FPassing clouds.7 mph87%30.36 "HgN/A
10:30 PM46 °FPassing clouds.6 mph87%30.36 "HgN/A
9:30 PM48 °FPassing clouds.5 mph82%30.36 "HgN/A
9:00 PM48 °FPassing clouds.5 mph82%30.36 "HgN/A
8:30 PM48 °FPassing clouds.5 mph82%30.36 "HgN/A
8:00 PM50 °FPassing clouds.6 mph76%30.36 "HgN/A
7:30 PM50 °FPassing clouds.7 mph76%30.36 "HgN/A
7:00 PM52 °FPassing clouds.8 mph72%30.33 "HgN/A
6:30 PM54 °FPassing clouds.8 mph63%30.33 "HgN/A
6:00 PM54 °FPassing clouds.10 mph67%30.30 "HgN/A
5:30 PM55 °FPassing clouds.8 mph63%30.30 "HgN/A
5:00 PM57 °FScattered clouds.8 mph63%30.30 "HgN/A
4:30 PM57 °FSprinkles. Scattered clouds.12 mph67%30.27 "HgN/A
4:00 PM55 °FScattered clouds.13 mph67%30.27 "HgN/A
3:30 PM54 °FScattered showers. Partly sunny.7 mph82%30.27 "HgN/A
3:00 PM55 °FSprinkles. Broken clouds.9 mph72%30.27 "HgN/A
Weather by CustomWeather, © 2015

See weather overviewHow to use our weather pages